TimeCET,TemperatureF,Dew PointF,Humidity,Sea Level PressureIn,VisibilityMPH,Wind Direction,Wind SpeedMPH,Gust SpeedMPH,PrecipitationIn,Events,Conditions,WindDirDegrees,DateUTC
12:00 AM,35.6,33.8,93,29.74,6.2,NE,1.2,-,N/A,,Partly Cloudy,40,2013-01-24 23:00:00
12:30 AM,35.6,33.8,93,29.74,6.2,Calm,Calm,-,N/A,,Partly Cloudy,0,2013-01-24 23:30:00
1:00 AM,36,33,83,29.75,6,Calm,Calm,,,,Scattered Clouds,,2013-01-25 00:00:00
1:00 AM,33.8,33.8,100,29.74,6.2,Calm,Calm,-,N/A,,Partly Cloudy,0,2013-01-25 00:00:00
1:30 AM,33.8,33.8,100,29.74,6.2,SW,1.2,-,N/A,,Partly Cloudy,220,2013-01-25 00:30:00
2:00 AM,32.0,32.0,100,29.74,6.2,East,1.2,-,N/A,,Partly Cloudy,90,2013-01-25 01:00:00
2:30 AM,32.0,32.0,100,29.74,6.2,Calm,Calm,-,N/A,,Partly Cloudy,0,2013-01-25 01:30:00
3:00 AM,30.2,30.2,100,29.74,6.2,West,3.5,-,N/A,,Partly Cloudy,260,2013-01-25 02:00:00
3:30 AM,30.2,30.2,100,29.77,6.2,Calm,Calm,-,N/A,,Partly Cloudy,0,2013-01-25 02:30:00
4:00 AM,30.2,30.2,100,29.77,6.2,Variable,2.3,-,N/A,,Partly Cloudy,0,2013-01-25 03:00:00
4:30 AM,28.4,28.4,100,29.77,6.2,South,1.2,-,N/A,,Partly Cloudy,180,2013-01-25 03:30:00
5:00 AM,28.4,28.4,100,29.77,6.2,Calm,Calm,-,N/A,,Partly Cloudy,0,2013-01-25 04:00:00
5:30 AM,28.4,28.4,100,29.77,6.2,Calm,Calm,-,N/A,,Partly Cloudy,0,2013-01-25 04:30:00
6:00 AM,28.4,28.4,100,29.80,6.2,West,1.2,-,N/A,,Partly Cloudy,280,2013-01-25 05:00:00
6:30 AM,28.4,28.4,100,29.80,6.2,Variable,1.2,-,N/A,,Partly Cloudy,0,2013-01-25 05:30:00
7:00 AM,29,27,88,29.84,6,East,1.2,,,,Scattered Clouds,100,2013-01-25 06:00:00
7:00 AM,26.6,26.6,100,29.80,6.2,SSW,1.2,-,N/A,,Partly Cloudy,210,2013-01-25 06:00:00
7:30 AM,26.6,26.6,100,29.80,6.2,Calm,Calm,-,N/A,,Partly Cloudy,0,2013-01-25 06:30:00
8:00 AM,26.6,26.6,100,29.83,-9999.0,SW,1.2,-,N/A,,Clear,230,2013-01-25 07:00:00
8:30 AM,26.6,26.6,100,29.83,-9999.0,Calm,Calm,-,N/A,,Clear,0,2013-01-25 07:30:00
9:00 AM,26.6,26.6,100,29.83,-9999.0,SW,1.2,-,N/A,,Clear,230,2013-01-25 08:00:00
9:30 AM,30.2,30.2,100,29.86,-9999.0,Variable,2.3,-,N/A,,Clear,0,2013-01-25 08:30:00
10:00 AM,33.8,30.2,87,29.86,-9999.0,Calm,Calm,-,N/A,,Clear,0,2013-01-25 09:00:00
10:30 AM,35.6,32.0,87,29.86,-9999.0,Variable,2.3,-,N/A,,Clear,0,2013-01-25 09:30:00
11:00 AM,39.2,28.4,65,29.86,-9999.0,Variable,1.2,-,N/A,,Clear,0,2013-01-25 10:00:00
11:30 AM,44.6,26.6,49,29.86,-9999.0,Variable,1.2,-,N/A,,Clear,0,2013-01-25 10:30:00
12:00 PM,46.4,24.8,43,29.86,-9999.0,Variable,1.2,-,N/A,,Clear,0,2013-01-25 11:00:00
12:30 PM,50.0,26.6,40,29.86,-9999.0,Variable,1.2,-,N/A,,Clear,0,2013-01-25 11:30:00
1:00 PM,55,24,18,29.85,34,South,3.5,,,,,170,2013-01-25 12:00:00
1:00 PM,51.8,23.0,33,29.86,-9999.0,South,3.5,-,N/A,,Clear,190,2013-01-25 12:00:00
1:30 PM,53.6,21.2,28,29.86,-9999.0,South,4.6,-,N/A,,Clear,180,2013-01-25 12:30:00
2:00 PM,55.4,21.2,26,29.83,-9999.0,South,3.5,-,N/A,,Clear,170,2013-01-25 13:00:00
2:30 PM,57.2,21.2,25,29.83,-9999.0,Variable,1.2,-,N/A,,Clear,0,2013-01-25 13:30:00
3:00 PM,57.2,21.2,25,29.83,-9999.0,Variable,2.3,-,N/A,,Clear,0,2013-01-25 14:00:00
3:30 PM,59.0,24.8,27,29.83,-9999.0,Variable,2.3,-,N/A,,Clear,0,2013-01-25 14:30:00
4:00 PM,57.2,26.6,31,29.83,-9999.0,SSW,5.8,-,N/A,,Clear,210,2013-01-25 15:00:00
4:30 PM,57.2,28.4,33,29.83,-9999.0,SSW,5.8,-,N/A,,Clear,200,2013-01-25 15:30:00
5:00 PM,55.4,30.2,38,29.83,-9999.0,SSW,3.5,-,N/A,,Clear,210,2013-01-25 16:00:00
5:30 PM,53.6,32.0,44,29.83,6.2,Variable,2.3,-,N/A,,Partly Cloudy,0,2013-01-25 16:30:00
6:00 PM,50.0,32.0,50,29.86,6.2,WSW,1.2,-,N/A,,Partly Cloudy,250,2013-01-25 17:00:00
6:30 PM,42.8,32.0,66,29.86,6.2,Calm,Calm,-,N/A,,Partly Cloudy,0,2013-01-25 17:30:00
7:00 PM,43,33,57,29.87,19,Calm,Calm,,,,Scattered Clouds,,2013-01-25 18:00:00
7:00 PM,41.0,30.2,65,29.86,6.2,Calm,Calm,-,N/A,,Partly Cloudy,0,2013-01-25 18:00:00
7:30 PM,41.0,32.0,70,29.86,6.2,Calm,Calm,-,N/A,,Partly Cloudy,0,2013-01-25 18:30:00
8:00 PM,42.8,32.0,66,29.86,6.2,Variable,1.2,-,N/A,,Partly Cloudy,0,2013-01-25 19:00:00
8:30 PM,41.0,30.2,65,29.86,-9999.0,Calm,Calm,-,N/A,,Clear,0,2013-01-25 19:30:00
9:00 PM,37.4,30.2,75,29.86,-9999.0,Calm,Calm,-,N/A,,Clear,0,2013-01-25 20:00:00
9:30 PM,37.4,30.2,75,29.86,-9999.0,Calm,Calm,-,N/A,,Clear,0,2013-01-25 20:30:00
10:00 PM,35.6,28.4,75,29.86,-9999.0,Calm,Calm,-,N/A,,Clear,0,2013-01-25 21:00:00
10:30 PM,35.6,28.4,75,29.86,-9999.0,Calm,Calm,-,N/A,,Clear,0,2013-01-25 21:30:00
11:00 PM,33.8,28.4,81,29.83,-9999.0,Calm,Calm,-,N/A,,Clear,0,2013-01-25 22:00:00
11:30 PM,30.2,26.6,86,29.83,-9999.0,SSW,3.5,-,N/A,,Clear,210,2013-01-25 22:30:00